Sauk Centre, MN

2:16 PM CST on December 07, 2019 (GMT -0600)
Sauk Centre

Weather History for KD39 - October, 2019

Change the Weather History Date:

Tuesday, October 29, 2019

  Actual Average (WUND) Record (WUND)
Temperature  
Mean Temperature 26 °F -  
Max Temperature 32 °F - - (-1)
Min Temperature 20 °F - - (-1)
Degree Days  
Heating Degree Days 39    
Moisture  
Dew Point 16 °F    
Average Humidity 67    
Maximum Humidity 87    
Minimum Humidity 44    
Precipitation  
Precipitation 0.00 in - - ()
Sea Level Pressure  
Sea Level Pressure 30.22 in    
Wind  
Wind Speed 6 mph ()    
Max Wind Speed 18 mph    
Max Gust Speed 25 mph    
Visibility 9.9 miles    
Events      
Averages and records for this station are not official NWS values.
T = Trace of Precipitation, MM = Missing Value Source: Averaged Metar Reports

Daily Weather History Graph

Daily Weather History Graph

Search for Another Location

Airport or City:

Astronomy

Oct. 29, 2019 Rise Set
Actual Time 7:55 AM CDT 6:11 PM CDT
Civil Twilight 7:24 AM CDT 6:41 PM CDT
Nautical Twilight 6:49 AM CDT 7:16 PM CDT
Astronomical Twilight 6:14 AM CDT 7:51 PM CDT
Moon 9:32 AM CDT (10/29) 7:31 PM CDT (10/29)
Length of Visible Light 11h 17m
Length of Day
10h 15m
Waxing Crescent, 3% of the Moon is Illuminated
Oct 29
Waxing Crescent
Nov 4
First Quarter
Nov 12
Full
Nov 19
Last Quarter
Nov 26
New

Hourly Weather History & Observations

Time (CDT) Temp. Windchill Dew Point Humidity Pressure Visibility Wind Dir Wind Speed Gust Speed Precip Events Conditions
12:15 AM 27.1 °F 23.2 °F 20.3 °F 75% 30.08 in 10.0 mi West 3.5 mph - N/A   Mostly Cloudy
12:37 AM 26.6 °F 22.6 °F 20.3 °F 77% 30.09 in 10.0 mi WSW 3.5 mph - N/A   Scattered Clouds
12:56 AM 25.2 °F - 19.9 °F 81% 30.09 in 10.0 mi Calm Calm - N/A   Clear
1:15 AM 25.2 °F - 20.5 °F 82% 30.09 in 10.0 mi Calm Calm - N/A   Mostly Cloudy
1:16 AM 25.2 °F - 20.5 °F 82% 30.09 in 10.0 mi Calm Calm - N/A   Mostly Cloudy
1:35 AM 24.8 °F - 20.8 °F 85% 30.09 in 10.0 mi Calm Calm - N/A   Mostly Cloudy
1:58 AM 25.5 °F - 20.8 °F 82% 30.09 in 10.0 mi Calm Calm - N/A   Clear
2:17 AM 24.8 °F - 21.0 °F 86% 30.09 in 10.0 mi Calm Calm - N/A   Clear
2:36 AM 24.8 °F - 21.0 °F 86% 30.09 in 10.0 mi Calm Calm - N/A   Clear
2:55 AM 23.9 °F 19.5 °F 19.9 °F 85% 30.10 in 10.0 mi West 3.5 mph - N/A   Clear
2:56 AM 23.9 °F 19.5 °F 20.1 °F 85% 30.10 in 10.0 mi West 3.5 mph - N/A   Clear
3:15 AM 24.4 °F 18.6 °F 21.0 °F 87% 30.10 in 10.0 mi West 4.6 mph - N/A   Clear
3:37 AM 24.3 °F 19.9 °F 21.0 °F 87% 30.10 in 10.0 mi WNW 3.5 mph - N/A   Clear
3:56 AM 24.8 °F 20.5 °F 21.2 °F 86% 30.10 in 10.0 mi NW 3.5 mph - N/A   Clear
4:15 AM 25.9 °F 18.2 °F 21.2 °F 82% 30.11 in 10.0 mi NW 6.9 mph - N/A   Clear
4:16 AM 26.1 °F 18.4 °F 21.0 °F 81% 30.11 in 10.0 mi NW 6.9 mph - N/A   Clear
4:35 AM 26.2 °F 16.4 °F 17.4 °F 69% 30.12 in 7.0 mi NW 10.4 mph - N/A   Clear
4:36 AM 26.2 °F 16.4 °F 17.4 °F 69% 30.12 in 7.0 mi NW 10.4 mph - N/A   Clear
4:58 AM 26.1 °F 16.8 °F 16.2 °F 66% 30.13 in 10.0 mi NNW 9.2 mph - N/A   Clear
5:16 AM 24.3 °F 18.4 °F 16.0 °F 71% 30.13 in 10.0 mi NW 4.6 mph - N/A   Clear
5:35 AM 23.7 °F 19.3 °F 18.1 °F 79% 30.14 in 10.0 mi West 3.5 mph - N/A   Clear
5:36 AM 23.7 °F 17.8 °F 18.1 °F 79% 30.14 in 10.0 mi West 4.6 mph - N/A   Clear
5:55 AM 22.5 °F 16.3 °F 18.5 °F 85% 30.15 in 10.0 mi WNW 4.6 mph - N/A   Clear
5:56 AM 22.5 °F 17.8 °F 18.5 °F 85% 30.15 in 10.0 mi WNW 3.5 mph - N/A   Clear
6:15 AM 22.6 °F 16.5 °F 18.0 °F 82% 30.16 in 10.0 mi WNW 4.6 mph - N/A   Clear
6:37 AM 23.4 °F 15.2 °F 16.5 °F 75% 30.16 in 10.0 mi WNW 6.9 mph - N/A   Scattered Clouds
6:55 AM 24.4 °F 14.9 °F 14.7 °F 67% 30.16 in 10.0 mi NW 9.2 mph - N/A   Scattered Clouds
6:56 AM 24.4 °F 14.9 °F 14.5 °F 66% 30.16 in 10.0 mi NW 9.2 mph - N/A   Scattered Clouds
7:15 AM 23.9 °F 15.0 °F 14.7 °F 68% 30.17 in 10.0 mi WNW 8.1 mph - N/A   Clear
7:16 AM 23.9 °F 15.8 °F 14.7 °F 68% 30.17 in 10.0 mi WNW 6.9 mph - N/A   Clear
7:35 AM 23.0 °F 15.8 °F 14.9 °F 71% 30.18 in 10.0 mi West 5.8 mph - N/A   Clear
7:40 AM 22.6 °F 16.5 °F 15.3 °F 73% 30.17 in 10.0 mi West 4.6 mph - N/A   Clear
7:57 AM 21.7 °F 14.3 °F 15.4 °F 77% 30.18 in 10.0 mi WNW 5.8 mph - N/A   Clear
8:15 AM 22.5 °F 15.1 °F 15.4 °F 74% 30.18 in 10.0 mi WNW 5.8 mph - N/A   Clear
8:35 AM 22.6 °F 16.5 °F 15.6 °F 74% 30.20 in 10.0 mi West 4.6 mph - N/A   Clear
8:55 AM 22.6 °F - 16.3 °F 77% 30.20 in 10.0 mi Calm Calm - N/A   Clear
8:56 AM 22.6 °F 18.0 °F 16.3 °F 77% 30.21 in 10.0 mi West 3.5 mph - N/A   Clear
9:18 AM 24.8 °F 16.9 °F 17.6 °F 74% 30.21 in 10.0 mi West 6.9 mph - N/A   Clear
9:36 AM 26.2 °F 15.8 °F 16.9 °F 68% 30.22 in 10.0 mi West 11.5 mph 16.1 mph N/A   Clear
9:55 AM 26.4 °F 15.0 °F 16.2 °F 65% 30.23 in 10.0 mi WNW 13.8 mph 18.4 mph N/A   Clear
10:15 AM 26.6 °F 16.2 °F 13.6 °F 58% 30.23 in 10.0 mi WNW 11.5 mph 18.4 mph N/A   Clear
10:16 AM 26.6 °F 15.7 °F 13.6 °F 58% 30.23 in 10.0 mi WNW 12.7 mph 18.4 mph N/A   Clear
10:35 AM 26.8 °F 15.4 °F 14.0 °F 59% 30.24 in 10.0 mi West 13.8 mph - N/A   Clear
10:39 AM 26.6 °F 16.8 °F 13.8 °F 59% 30.24 in 10.0 mi West 10.4 mph - N/A   Clear
10:57 AM 27.1 °F 15.9 °F 13.5 °F 56% 30.24 in 10.0 mi West 13.8 mph 19.6 mph N/A   Clear
11:16 AM 27.3 °F 16.6 °F 13.8 °F 57% 30.24 in 10.0 mi WNW 12.7 mph - N/A   Clear
11:35 AM 28.4 °F 17.5 °F 14.0 °F 55% 30.25 in 10.0 mi WNW 13.8 mph 18.4 mph N/A   Clear
11:36 AM 28.4 °F 17.5 °F 13.8 °F 54% 30.25 in 10.0 mi WNW 13.8 mph 18.4 mph N/A   Clear
11:55 AM 28.4 °F 18.0 °F 13.8 °F 54% 30.26 in 10.0 mi West 12.7 mph 20.7 mph N/A   Clear
11:56 AM 28.4 °F 18.0 °F 14.0 °F 55% 30.26 in 10.0 mi West 12.7 mph 20.7 mph N/A   Clear
12:19 PM 28.4 °F 17.0 °F 14.0 °F 55% 30.26 in 10.0 mi West 15.0 mph - N/A   Clear
12:36 PM 28.8 °F 18.4 °F 14.9 °F 56% 30.26 in 10.0 mi West 12.7 mph 17.3 mph N/A   Clear
12:55 PM 30.4 °F 19.1 °F 14.5 °F 52% 30.26 in 10.0 mi WNW 16.1 mph 19.6 mph N/A   Clear
12:56 PM 30.4 °F 20.0 °F 14.4 °F 51% 30.26 in 10.0 mi WNW 13.8 mph 19.6 mph N/A   Clear
1:15 PM 30.9 °F 19.4 °F 12.2 °F 46% 30.26 in 10.0 mi West 17.3 mph 25.3 mph N/A   Clear
1:16 PM 30.9 °F 19.4 °F 12.2 °F 46% 30.26 in 10.0 mi West 17.3 mph 25.3 mph N/A   Clear
1:35 PM 31.3 °F 19.5 °F 13.6 °F 48% 30.25 in 10.0 mi West 18.4 mph - N/A   Clear
1:40 PM 30.9 °F 20.2 °F 12.9 °F 47% 30.25 in 10.0 mi West 15.0 mph 24.2 mph N/A   Clear
2:36 PM 32.0 °F 22.1 °F 12.2 °F 44% 30.24 in 10.0 mi West 13.8 mph 21.9 mph N/A   Clear
2:55 PM 32.0 °F 22.1 °F 12.0 °F 44% 30.23 in 10.0 mi West 13.8 mph 24.2 mph N/A   Clear
2:56 PM 32.0 °F 22.5 °F 12.0 °F 44% 30.23 in 10.0 mi West 12.7 mph 24.2 mph N/A   Clear
3:18 PM 32.2 °F 23.2 °F 12.9 °F 45% 30.23 in 10.0 mi West 11.5 mph 21.9 mph N/A   Clear
3:36 PM 32.0 °F 21.2 °F 12.6 °F 45% 30.22 in 10.0 mi West 16.1 mph 21.9 mph N/A   Clear
3:55 PM 32.0 °F 23.0 °F 12.9 °F 45% 30.23 in 10.0 mi WSW 11.5 mph 17.3 mph N/A   Clear
4:15 PM 32.0 °F 21.6 °F 12.7 °F 45% 30.23 in 10.0 mi West 15.0 mph 18.4 mph N/A   Clear
4:16 PM 32.0 °F 22.1 °F 12.7 °F 45% 30.23 in 10.0 mi West 13.8 mph 18.4 mph N/A   Clear
4:35 PM 32.0 °F 21.2 °F 12.0 °F 44% 30.23 in 10.0 mi WSW 16.1 mph 20.7 mph N/A   Clear
4:57 PM 31.3 °F 21.1 °F 11.7 °F 44% 30.24 in 10.0 mi West 13.8 mph - N/A   Clear
5:16 PM 30.6 °F 19.4 °F 12.7 °F 48% 30.25 in 10.0 mi WSW 16.1 mph 20.7 mph N/A   Clear
5:35 PM 30.0 °F 19.5 °F 12.6 °F 48% 30.25 in 10.0 mi West 13.8 mph 18.4 mph N/A   Clear
5:36 PM 29.8 °F 19.8 °F 12.6 °F 49% 30.25 in 10.0 mi West 12.7 mph 18.4 mph N/A   Clear
5:55 PM 28.9 °F 20.4 °F 13.8 °F 53% 30.26 in 10.0 mi West 9.2 mph - N/A   Clear
6:18 PM 27.5 °F 19.3 °F 14.0 °F 57% 30.27 in 10.0 mi West 8.1 mph - N/A   Clear
6:36 PM 26.8 °F 17.1 °F 14.5 °F 60% 30.28 in 10.0 mi West 10.4 mph - N/A   Clear
6:55 PM 26.1 °F 18.4 °F 14.9 °F 63% 30.28 in 10.0 mi West 6.9 mph - N/A   Clear
7:15 PM 25.0 °F 17.1 °F 14.9 °F 66% 30.28 in 10.0 mi West 6.9 mph - N/A   Clear
7:35 PM 24.3 °F 18.4 °F 15.1 °F 68% 30.28 in 10.0 mi West 4.6 mph - N/A   Clear
7:40 PM 23.9 °F 16.8 °F 15.4 °F 70% 30.28 in 10.0 mi West 5.8 mph - N/A   Clear
7:57 PM 23.9 °F 15.8 °F 15.3 °F 70% 30.28 in 10.0 mi West 6.9 mph - N/A   Clear
8:15 PM 23.2 °F 17.2 °F 15.3 °F 72% 30.29 in 10.0 mi West 4.6 mph - N/A   Clear
8:35 PM 22.6 °F 16.5 °F 15.4 °F 74% 30.29 in 10.0 mi West 4.6 mph - N/A   Clear
8:36 PM 22.6 °F 16.5 °F 15.6 °F 74% 30.29 in 10.0 mi West 4.6 mph - N/A   Clear
8:55 PM 22.1 °F 15.9 °F 15.8 °F 77% 30.29 in 10.0 mi West 4.6 mph - N/A   Clear
8:56 PM 22.1 °F 15.9 °F 15.8 °F 77% 30.29 in 10.0 mi West 4.6 mph - N/A   Clear
9:19 PM 22.3 °F 17.6 °F 15.4 °F 75% 30.30 in 10.0 mi WSW 3.5 mph - N/A   Clear
9:36 PM 22.8 °F 16.7 °F 15.3 °F 73% 30.31 in 10.0 mi WSW 4.6 mph - N/A   Clear
9:55 PM 23.2 °F 16.0 °F 14.9 °F 71% 30.32 in 10.0 mi WSW 5.8 mph - N/A   Clear
10:15 PM 22.8 °F 15.5 °F 15.3 °F 73% 30.32 in 10.0 mi WSW 5.8 mph - N/A   Clear
10:16 PM 22.6 °F 15.3 °F 15.3 °F 73% 30.32 in 10.0 mi WSW 5.8 mph - N/A   Clear
10:35 PM 21.7 °F 14.3 °F 15.4 °F 77% 30.32 in 10.0 mi WSW 5.8 mph - N/A   Clear
10:40 PM 21.6 °F 13.0 °F 14.9 °F 76% 30.32 in 7.0 mi WSW 6.9 mph - N/A   Clear
10:58 PM 22.1 °F 14.7 °F 14.7 °F 73% 30.32 in 10.0 mi WSW 5.8 mph - N/A   Clear
11:15 PM 20.8 °F 13.2 °F 14.7 °F 77% 30.32 in 10.0 mi West 5.8 mph - N/A   Clear
11:35 PM 20.3 °F 12.5 °F 14.9 °F 80% 30.32 in 10.0 mi West 5.8 mph - N/A   Clear
11:36 PM 20.3 °F 12.5 °F 14.9 °F 80% 30.32 in 10.0 mi WSW 5.8 mph - N/A   Clear
11:55 PM 20.7 °F 15.8 °F 14.7 °F 78% 30.32 in 10.0 mi WSW 3.5 mph - N/A   Clear
11:56 PM 20.5 °F 14.0 °F 14.7 °F 78% 30.32 in 10.0 mi WSW 4.6 mph - N/A   Clear